This is the latest recevied weather packets stored in our database for station/object S51UL-6. If no packets are shown the sender has not sent any weather packets the latest 10 day(s).
| Time | Temp. | Humidity | Pressure | Rain* | Wind** | Luminosity | Snow |
|---|---|---|---|---|---|---|---|
| 1788696616 | 31.67° C | 41% | 1025.5 hPa | 8.89 mm | - | - | - |
| 1788696015 | 33.33° C | 41% | 1025.6 hPa | 9.4 mm | - | - | - |
| 1788695716 | 33.33° C | 41% | 1025.6 hPa | 9.4 mm | - | - | - |
| 1788695416 | 33.33° C | 41% | 1025.6 hPa | 8.13 mm | - | - | - |
| 1788695116 | 33.33° C | 41% | 1025.7 hPa | 8.13 mm | - | - | - |
| 1788694816 | 32.78° C | 42% | 1025.8 hPa | 8.13 mm | - | - | - |
| 1788694517 | 32.78° C | 40% | 1025.8 hPa | 7.62 mm | - | - | - |
| 1788692717 | 33.33° C | 44% | 1026.2 hPa | 4.57 mm | - | - | - |
| 1788692416 | 32.22° C | 44% | 1026 hPa | 3.05 mm | - | - | - |
| 1788691816 | 31.11° C | 48% | 1026.1 hPa | 3.05 mm | - | - | - |
| 1788691516 | 30.56° C | 48% | 1026 hPa | 3.56 mm | - | - | - |
| 1788691217 | 28.89° C | 49% | 1026.3 hPa | 2.54 mm | - | - | - |
| 1788690916 | 28.89° C | 48% | 1026.3 hPa | 2.03 mm | - | - | - |
| 1788690616 | 28.89° C | 51% | 1026.2 hPa | 2.03 mm | - | - | - |
| 1788690316 | 27.78° C | 52% | 1026.2 hPa | 0.51 mm | - | - | - |
| 1788690017 | 27.78° C | 51% | 1026.4 hPa | 0.51 mm | - | - | - |
| 1788689717 | 27.22° C | 52% | 1026.3 hPa | 0.51 mm | - | - | - |
| 1788689417 | 26.67° C | 53% | 1026.4 hPa | 0.51 mm | - | - | - |
| 1788689117 | 26.67° C | 53% | 1026.5 hPa | 0.51 mm | - | - | - |
| 1788688517 | 26.11° C | 54% | 1026.7 hPa | 0.51 mm | - | - | - |
| 1788688219 | 26.11° C | 55% | 1026.7 hPa | 0 mm | - | - | - |
| 1788687917 | 26.11° C | 54% | 1026.7 hPa | 0.51 mm | - | - | - |
| 1788687618 | 26.11° C | 55% | 1026.9 hPa | 0.51 mm | - | - | - |
| 1788687034 | 25.56° C | 59% | 1027 hPa | 0.51 mm | - | - | - |
| 1788686717 | 25° C | 58% | 1026.9 hPa | 0.51 mm | - | - | - |
* Rain latest hour (hover to see other rain measurements)
** Current wind speed in m/s (hover to see current wind gust speed)